Alvadore, OR

4:11 AM PST on February 09, 2016 (GMT -0800)
Mahlon Sweet

Weather History for KEUG - February, 2014

Change the Weather History Date:

Monday, February 17, 2014

  Actual Average Record
Temperature  
Mean Temperature 49 °F 43 °F  
Max Temperature 55 °F 51 °F 70 °F (1930)
Min Temperature 43 °F 35 °F 19 °F (1936)
Degree Days  
Heating Degree Days 16 22  
Month to date heating degree days 427 384  
Since 1 July heating degree days 3352 3094  
Cooling Degree Days 0 0  
Month to date cooling degree days 0 0  
Year to date cooling degree days 0 0  
Moisture  
Dew Point 42 °F    
Average Humidity 81    
Maximum Humidity 96    
Minimum Humidity 66    
Precipitation  
Precipitation 0.40 in 0.19 in 2.30 in (1983)
Month to date precipitation 6.71 3.32  
Year to date precipitation 9.29 10.19  
Sea Level Pressure  
Sea Level Pressure 29.99 in    
Wind  
Wind Speed 13 mph (SSW)    
Max Wind Speed 26 mph    
Max Gust Speed 33 mph    
Visibility 9 miles    
Events Rain    
T = Trace of Precipitation, MM = Missing Value Source: NWS Daily Summary

Daily Weather History Graph

Daily Weather History Graph

Search for Another Location

Airport or City:

Trip Planner

Search our weather history database for the weather conditions in past years. The results will help you decide how hot, cold, wet, or windy it might be!

Date:

Astronomy

Feb. 17, 2014 Rise Set
Actual Time 7:09 AM PST 5:45 PM PST
Civil Twilight 6:39 AM PST 6:14 PM PST
Nautical Twilight 6:05 AM PST 6:48 PM PST
Astronomical Twilight 5:32 AM PST 7:22 PM PST
Moon 8:53 PM PST (2/17) 8:05 AM PST (2/17)
Length of Visible Light 11h 35m
Length of Day
10h 36m
Waning Gibbous, 93% of the Moon is Illuminated
Feb 17
Waning Gibbous
Feb 22
Last Quarter
Mar 1
New
Mar 8
First Quarter
Mar 16
Full

Hourly Weather History & Observations

Time (PST) Temp. Windchill Dew Point Humidity Pressure Visibility Wind Dir Wind Speed Gust Speed Precip Events Conditions
12:54 AM 48.0 °F - 37.0 °F 66% 29.99 in 10.0 mi SSW 18.4 mph - 0.00 in Rain Light Rain
1:54 AM - - - N/A% 29.98 in - North - - N/A   Unknown
2:54 AM 46.9 °F - 37.0 °F 68% 29.96 in 10.0 mi South 17.3 mph - N/A   Overcast
3:54 AM 46.9 °F - 37.9 °F 71% 29.94 in 10.0 mi SSW 16.1 mph - 0.00 in Rain Light Rain
4:54 AM 46.0 °F - 39.0 °F 76% 29.91 in 10.0 mi North - - 0.00 in Rain Light Rain
5:54 AM 46.0 °F 38.0 °F 39.0 °F 76% 29.91 in 10.0 mi South 21.9 mph 29.9 mph 0.00 in Rain Light Rain
6:38 AM 46.0 °F 37.8 °F 39.9 °F 79% 29.90 in 9.0 mi SSW 23.0 mph 29.9 mph 0.00 in Rain Light Rain
6:54 AM 46.0 °F 38.3 °F 39.9 °F 79% 29.90 in 9.0 mi South 20.7 mph 27.6 mph 0.00 in   Mostly Cloudy
7:54 AM 46.0 °F 38.8 °F 41.0 °F 83% 29.91 in 5.0 mi South 18.4 mph 27.6 mph 0.05 in Rain Light Rain
8:51 AM 46.4 °F 39.2 °F 42.8 °F 87% 29.96 in 2.5 mi WNW 18.4 mph 25.3 mph 0.13 in Rain Heavy Rain
8:54 AM 46.0 °F 41.4 °F 43.0 °F 89% 29.97 in 3.0 mi WSW 9.2 mph - 0.16 in Rain Rain
9:04 AM 46.0 °F 41.4 °F 44.1 °F 93% 29.95 in 8.0 mi South 9.2 mph - 0.03 in Rain Light Rain
9:54 AM 48.9 °F - 44.1 °F 83% 29.96 in 10.0 mi South 10.4 mph - 0.03 in   Mostly Cloudy
10:10 AM 48.9 °F - 44.1 °F 83% 29.97 in 10.0 mi South 12.7 mph - N/A   Overcast
10:34 AM 51.1 °F - 46.0 °F 83% 29.98 in 10.0 mi South 15.0 mph - 0.00 in   Mostly Cloudy
10:54 AM 52.0 °F - 45.0 °F 77% 29.98 in 10.0 mi SSW 15.0 mph - 0.00 in   Mostly Cloudy
11:54 AM 54.0 °F - 44.1 °F 69% 29.99 in 10.0 mi SW 18.4 mph - N/A   Mostly Cloudy
12:54 PM 52.0 °F - 42.1 °F 69% 29.98 in 10.0 mi WSW 10.4 mph - 0.00 in   Overcast
1:54 PM 51.1 °F - 43.0 °F 74% 29.97 in 10.0 mi South 15.0 mph - 0.00 in   Overcast
2:54 PM 51.1 °F - 42.1 °F 71% 29.99 in 10.0 mi WSW 9.2 mph - 0.01 in Rain Light Rain
3:54 PM 48.0 °F - 42.1 °F 80% 29.99 in 7.0 mi WNW 12.7 mph - 0.02 in Rain Light Rain
4:20 PM 48.0 °F - 43.0 °F 83% 29.99 in 10.0 mi West 6.9 mph - 0.01 in Rain Light Rain
4:54 PM 48.0 °F - 43.0 °F 83% 29.99 in 10.0 mi SSW 6.9 mph - 0.01 in   Overcast
5:35 PM 48.0 °F - 44.1 °F 86% 29.99 in 9.0 mi SE 9.2 mph - 0.00 in Rain Light Rain
5:54 PM 46.9 °F - 45.0 °F 93% 30.00 in 9.0 mi SE 5.8 mph - 0.00 in   Overcast
6:54 PM 43.0 °F 40.3 °F 41.0 °F 93% 30.04 in 6.0 mi North 4.6 mph - 0.09 in Rain Light Rain
7:25 PM 44.1 °F 42.5 °F 41.0 °F 89% 30.04 in 6.0 mi SE 3.5 mph - 0.01 in Rain Light Rain
7:54 PM 46.0 °F 42.5 °F 43.0 °F 89% 30.06 in 10.0 mi SSW 6.9 mph - 0.01 in   Overcast
8:54 PM 45.0 °F 40.6 °F 43.0 °F 93% 30.08 in 10.0 mi SSE 8.1 mph - 0.00 in   Overcast
9:54 PM 46.0 °F 41.9 °F 44.1 °F 93% 30.09 in 10.0 mi SE 8.1 mph - 0.00 in Rain Light Rain
10:54 PM 46.0 °F 42.5 °F 44.1 °F 93% 30.08 in 9.0 mi SE 6.9 mph - 0.00 in Rain Light Rain
11:54 PM 48.0 °F - 43.0 °F 83% 30.07 in 10.0 mi South 13.8 mph - 0.02 in Rain Light Rain